#timestamp,LO_Frequency,Hit 
1504328415.8,286047022.8,N
1504328435.7,286047021.5,P
1504328455.5,286047002.2,N
1504328475.3,286047003.6,N
1504328495.2,286047005.6,N
1504328515.0,286047007.6,N
1504328515.9,286047007.6,N
1504328535.7,286047004.9,N
1504328555.6,286047003.7,N
1504328575.4,286047001.7,N
1504328595.2,286047007.2,N
1504328615.1,286047010.6,N
1504328616.0,286047010.6,N
1504328635.8,286047008.1,N
1504328655.6,286047010.7,N
1504328675.5,286047007.3,N
1504328695.3,286047004.8,N
1504328715.1,286047010.7,N
1504328735.9,286047007.2,N
1504328755.7,286047005.0,N
1504328775.5,286047006.7,N
1504328795.4,286047005.0,N
1504328815.2,286047007.0,N
1504328835.0,286047007.0,N
1504328835.9,286047007.0,N
1504328855.8,286047007.4,N
1504328875.6,286047006.1,N
1504328895.4,286047009.2,N
1504328915.2,286047006.2,N
1504328935.1,286047006.3,N
1504328936.0,286047006.3,N
1504328955.8,286047008.4,N
1504328975.7,286047007.0,P
1504328995.5,286047000.4,N
1504329015.3,286046998.9,N
1504329035.2,286046999.1,N
1504329055.9,286047001.1,N
1504329075.7,286046998.8,N
1504329095.5,286046999.1,N
1504329115.4,286047002.4,N
1504329135.2,286047000.1,N
1504329155.0,286046996.3,N
1504329155.9,286046996.3,N
1504329175.8,286046992.6,N
1504329195.6,286046989.4,N
1504329215.4,286046985.9,P
1504329235.3,286046985.5,N
1504329255.1,286046984.0,N
1504329275.8,286046984.5,N
1504329295.7,286046985.8,N
1504329315.5,286046984.1,P
1504329335.3,286046994.6,P
1504329355.2,286046993.5,N
1504329375.0,286046995.4,N
1504329375.9,286046995.4,N
1504329395.7,286046994.5,N
1504329415.6,286046988.5,N
1504329435.4,286046988.7,N
1504329455.2,286046988.8,N
1504329475.1,286046989.5,N
1504329476.0,286046989.5,N
1504329495.8,286046987.9,P
1504329515.6,286046990.6,P
1504329535.5,286046992.1,P
1504329555.3,286046990.8,P
1504329575.2,286046998.8,P
1504329595.9,286046996.7,N
1504329615.7,286046997.9,N
1504329635.5,286046998.9,N
1504329655.4,286046998.5,N
1504329675.2,286047006.0,N
1504329695.0,286046999.7,N
1504329695.9,286046999.7,N
1504329715.8,286046998.4,N
1504329735.6,286046999.0,N
1504329755.4,286046999.0,N
1504329775.3,286046996.7,N
1504329795.1,286046999.8,N
1504329796.0,286046999.8,N
1504329815.8,286047000.2,N
1504329835.7,286047002.6,N
1504329855.5,286046999.3,N
1504329875.3,286046994.0,N
1504329895.2,286046991.6,N
1504329915.9,286046999.1,N
1504329935.7,286047001.8,N
1504329955.6,286047002.5,N
1504329975.4,286047001.6,N
1504329995.2,286047004.7,N
1504330015.0,286047009.4,N
1504330016.0,286047009.4,N
1504330035.8,286047013.3,N
1504330055.6,286047018.1,P
1504330075.5,286047023.5,N
1504330095.3,286047018.9,N
1504330115.1,286047016.6,N
1504330135.9,286047018.0,N
1504330155.7,286047018.6,N
1504330175.5,286047017.2,N
1504330195.4,286047019.7,P
1504330215.2,286047004.6,N
1504330235.0,286047007.2,N
1504330235.9,286047007.2,N
1504330255.8,286047010.5,N
1504330275.6,286047012.2,N
1504330295.4,286047013.5,N
1504330315.2,286047011.9,N
1504330335.1,286047011.7,N
1504330336.0,286047011.7,N
1504330355.8,286047010.5,N
1504330375.6,286047006.6,N
1504330395.5,286047009.4,N
1504330415.3,286047010.0,N
1504330435.1,286047010.4,N
1504330455.9,286047010.3,N
1504330475.7,286047008.7,N
1504330495.5,286047010.5,P
1504330515.4,286046996.5,P
1504330535.2,286046999.6,N
1504330555.0,286047002.8,N
1504330555.9,286047002.8,N
1504330575.8,286047000.7,N
1504330595.6,286047004.1,N
1504330615.4,286047003.7,N
1504330635.3,286047003.0,N
1504330655.1,286047005.8,N
1504330656.0,286047005.8,N
1504330675.8,286047000.1,N
1504330695.7,286047000.3,N
1504330715.5,286047003.9,N
1504330735.3,286047005.4,N
1504330755.2,286047002.7,N
1504330775.9,286047003.6,N
1504330795.7,286047000.0,N
1504330815.5,286047003.7,N
1504330835.4,286047005.2,N
1504330855.2,286047004.7,N
1504330875.0,286047005.8,N
1504330876.0,286047005.8,N
1504330895.8,286047005.6,N
1504330915.6,286047005.6,N
1504330935.4,286047005.5,N
1504330955.3,286047001.9,N
1504330975.1,286046998.6,N
1504330995.8,286047001.9,N
1504331015.7,286047003.1,N
1504331035.5,286047005.4,N
1504331055.3,286047008.9,P
1504331075.2,286047002.5,N
1504331095.0,286047002.7,N
1504331095.9,286047002.7,N
1504331115.7,286047003.7,N
1504331135.6,286047005.6,N
1504331155.4,286046998.2,N
1504331175.2,286046996.1,N
1504331195.1,286046991.0,N
1504331196.0,286046991.0,N
1504331215.8,286046987.6,N
1504331235.6,286046986.5,N
1504331255.5,286046983.1,N
1504331275.3,286046983.8,N
1504331295.1,286046984.1,N
1504331315.9,286046983.0,N
1504331335.7,286046983.4,N
1504331355.5,286046983.3,N
1504331375.3,286046984.5,N
1504331395.2,286046985.1,N
1504331415.0,286046982.3,N
1504331415.9,286046982.3,N
1504331435.7,286046984.6,N
1504331455.6,286046983.0,N
1504331475.4,286046982.0,N
1504331495.2,286046981.8,N
1504331515.1,286046984.9,N
1504331516.0,286046984.9,N
1504331535.8,286046982.8,N
1504331555.6,286046983.6,N
1504331575.5,286046985.0,N
1504331595.3,286046985.1,N
1504331615.1,286046984.8,N
1504331635.9,286046980.8,N
1504331655.7,286046979.4,P
1504331675.5,286046989.9,N
1504331695.4,286046991.1,N
1504331715.2,286046989.3,N
1504331735.0,286046987.1,P
1504331735.9,286046987.1,P
1504331755.8,286047002.9,P
1504331775.6,286047001.9,N
1504331795.4,286046995.3,N
1504331815.3,286046993.7,N
1504331835.1,286046995.5,N
1504331836.0,286046995.5,N
1504331855.8,286046996.8,N
1504331875.7,286046997.9,N
1504331895.5,286046993.3,N
1504331915.3,286046993.8,N
1504331935.2,286046993.8,N
1504331955.9,286046993.4,N
1504331975.7,286046997.5,N
1504331995.5,286046992.9,N
